Volver al catálogo

SL-12 DEB

LostHEO
NORAD 43686·DEBRIS·🇷🇺 Russia

Lanzado Mar 1, 2010 desde Baikonur Cosmodrome

Loading…

Próximos Pases (próximas 24 horas)

TLE

ObsoletoSource: Space-Track

Época: Dec 16, 2023, 00:09 UTC

1 43686U 10007AL  23350.00648146  .00000254  00000-0  83006-3 0  9998
2 43686  64.6913 182.6236 5692823 339.0490   4.8436  4.24670752109214

Sigue SL-12 DEB en tiempo real con AllMySat

Download on the App Store